Farmingdale, NY

4:04 AM EST on February 11, 2016 (GMT -0500)
Republic

Weather History for KFRG - September, 2013

Change the Weather History Date:

Saturday, September 21, 2013

  Actual Average (KISP) Record (KISP)
Temperature  
Mean Temperature 65 °F 64 °F  
Max Temperature 75 °F 72 °F 82 °F (1989)
Min Temperature 55 °F 55 °F 43 °F (1991)
Degree Days  
Heating Degree Days 0 3  
Month to date heating degree days 31  
Since 1 July heating degree days 36  
Cooling Degree Days 0 2  
Month to date cooling degree days 80  
Year to date cooling degree days 766  
Growing Degree Days 15 (Base 50)    
Moisture  
Dew Point 61 °F    
Average Humidity 85    
Maximum Humidity 96    
Minimum Humidity 66    
Precipitation  
Precipitation 0.00 in 0.13 in 0.58 in (2001)
Month to date precipitation 2.46  
Year to date precipitation 33.60  
Snow  
Snow 0.00 in 0.00 in - ()
Month to date snowfall 0.0  
Since 1 July snowfall 0.0  
Snow Depth -    
Sea Level Pressure  
Sea Level Pressure 29.91 in    
Wind  
Wind Speed 6 mph (South)    
Max Wind Speed 22 mph    
Max Gust Speed 36 mph    
Visibility 10 miles    
Events      
T = Trace of Precipitation, MM = Missing Value Source: NWS Daily Summary

Daily Weather History Graph

Daily Weather History Graph

Search for Another Location

Airport or City:

Trip Planner

Search our weather history database for the weather conditions in past years. The results will help you decide how hot, cold, wet, or windy it might be!

Date:

Astronomy

Sep. 21, 2013 Rise Set
Actual Time 6:40 AM EDT 6:52 PM EDT
Civil Twilight 6:13 AM EDT 7:19 PM EDT
Nautical Twilight 5:40 AM EDT 7:51 PM EDT
Astronomical Twilight 5:08 AM EDT 8:23 PM EDT
Moon 8:00 PM EDT (9/21) 8:57 AM EDT (9/21)
Length of Visible Light 13h 06m
Length of Day
12h 11m
Waning Gibbous, 94% of the Moon is Illuminated
Sep 21
Waning Gibbous
Sep 26
Last Quarter
Oct 4
New
Oct 11
First Quarter
Oct 18
Full

Hourly Weather History & Observations

Time (EDT) Temp. Dew Point Humidity Pressure Visibility Wind Dir Wind Speed Gust Speed Precip Events Conditions
12:12 AM 62.6 °F 59.0 °F 88% 30.03 in 10.0 mi SW 3.5 mph - N/A   Mostly Cloudy
12:53 AM 61.0 °F 57.9 °F 90% 30.03 in 10.0 mi South 4.6 mph - N/A   Mostly Cloudy
1:04 AM 60.8 °F 57.2 °F 88% 30.03 in 10.0 mi South 5.8 mph - N/A   Scattered Clouds
1:53 AM 61.0 °F 57.0 °F 87% 30.02 in 10.0 mi SSW 4.6 mph - N/A   Clear
2:36 AM 60.8 °F 57.2 °F 88% 30.02 in 10.0 mi Calm Calm - N/A   Mostly Cloudy
2:53 AM 60.1 °F 57.0 °F 90% 30.01 in 10.0 mi Calm Calm - N/A   Mostly Cloudy
3:10 AM 59.0 °F 55.4 °F 88% 30.01 in 10.0 mi Calm Calm - N/A   Scattered Clouds
3:53 AM 57.0 °F 55.0 °F 93% 29.99 in 10.0 mi Calm Calm - N/A   Partly Cloudy
4:53 AM 55.9 °F 54.0 °F 93% 29.98 in 10.0 mi SE 3.5 mph - N/A   Clear
5:53 AM 55.0 °F 54.0 °F 96% 29.98 in 9.0 mi Calm Calm - N/A   Clear
6:40 AM 55.4 °F 53.6 °F 94% 29.99 in 10.0 mi Calm Calm - N/A   Mostly Cloudy
6:53 AM 57.0 °F 55.0 °F 93% 29.99 in 10.0 mi Calm Calm - N/A   Overcast
7:40 AM 59.0 °F 57.2 °F 94% 29.98 in 10.0 mi Calm Calm - N/A   Mostly Cloudy
7:53 AM 61.0 °F 57.9 °F 90% 29.98 in 10.0 mi Calm Calm - N/A   Overcast
8:40 AM 64.4 °F 60.8 °F 88% 29.97 in 10.0 mi Calm Calm - N/A   Mostly Cloudy
8:53 AM 64.0 °F 60.1 °F 87% 29.97 in 10.0 mi Calm Calm - N/A   Scattered Clouds
9:53 AM 70.0 °F 62.1 °F 76% 29.95 in 10.0 mi SSE 8.1 mph - N/A   Overcast
10:13 AM 69.8 °F 62.6 °F 78% 29.94 in 10.0 mi SE 13.8 mph - N/A   Overcast
10:27 AM 71.6 °F 62.6 °F 73% 29.93 in 10.0 mi SE 9.2 mph - N/A   Mostly Cloudy
10:53 AM 72.0 °F 62.1 °F 71% 29.93 in 10.0 mi SSE 13.8 mph - N/A   Mostly Cloudy
11:41 AM 71.6 °F 64.4 °F 78% 29.90 in 10.0 mi SSE 17.3 mph 26.5 mph N/A   Overcast
11:53 AM 72.0 °F 64.0 °F 76% 29.90 in 10.0 mi South 17.3 mph 26.5 mph N/A   Overcast
12:53 PM 72.0 °F 66.0 °F 81% 29.88 in 10.0 mi South 18.4 mph 25.3 mph N/A   Overcast
1:53 PM 75.0 °F 63.0 °F 66% 29.86 in 10.0 mi South 16.1 mph 29.9 mph N/A   Overcast
2:53 PM 73.9 °F 64.9 °F 73% 29.83 in 10.0 mi South 18.4 mph 28.8 mph N/A   Mostly Cloudy
3:53 PM 73.0 °F 64.9 °F 76% 29.81 in 10.0 mi South 21.9 mph 35.7 mph N/A   Mostly Cloudy
4:53 PM 73.0 °F 64.9 °F 76% 29.80 in 10.0 mi South 17.3 mph 24.2 mph N/A   Overcast
5:53 PM 71.1 °F 66.0 °F 84% 29.78 in 10.0 mi South 19.6 mph 24.2 mph N/A   Overcast
6:53 PM 70.0 °F 66.0 °F 87% 29.77 in 10.0 mi South 16.1 mph - N/A   Overcast
7:53 PM 70.0 °F 66.9 °F 90% 29.76 in 10.0 mi South 15.0 mph - N/A   Overcast
8:53 PM 70.0 °F 66.0 °F 87% 29.75 in 10.0 mi South 12.7 mph - N/A   Partly Cloudy
9:53 PM 70.0 °F 66.0 °F 87% 29.73 in 10.0 mi South 17.3 mph - N/A   Clear
10:53 PM 70.0 °F 66.9 °F 90% 29.72 in 10.0 mi South 15.0 mph - N/A   Mostly Cloudy
11:53 PM 70.0 °F 66.0 °F 87% 29.70 in 10.0 mi South 17.3 mph 23.0 mph N/A   Overcast